RH
57 58 62 66 67 74 87 93 95 100 100 99 98 98 98 99 98 99 100 100 100 98 99 99 99 96 98 91 61 38 35 36 30 24 22 26 33 34 30 27 32 34 34 33 38 37 48
60 64 69 78 82 82 86 91 96 100 100 99 99 100 100 98 89 77 93 97 99 99 98 98 99 97 100 97 77 44 43 40 32 28 27 31 32 24 20 23 24 31 26 27 30 34 38
67 82 88 83 82 87 96 100 98 96 93 100 86 91 87 42 32 23 25 44 82 97 99 94 99 100 100 97 81 50 47 41 34 34 34 37 36 29 25 40 23 18 18 18 17 19 24
82 79 73 78 88 100 99 76 72 63 66 68 65 79 78 75 52 42 35 34 40 32 86 99 100 98 100 99 86 57 54 43 38 41 42 47 41 30 38 38 25 17 14 13 14 16 18
68 64 79 92 100 100 98 95 73 70 91 76 80 65 41 57 71 54 33 34 58 67 75 98 99 100 100 100 93 61 54 42 43 45 43 37 31 33 32 20 19 18 15 13 15 17 18
36 22 70 100 100 100 100 100 100 94 96 90 100 99 76 80 70 52 43 34 39 38 97 100 95 100 100 91 81 66 48 46 47 46 42 40 35 21 23 32 34 22 32 31 35 52 38
6 10 79 100 100 100 100 100 100 100 100 100 97 94 100 97 82 40 53 91 80 60 97 100 98 98 96 98 86 55 50 49 53 44 45 24 27 30 35 43 42 45 38 46 75 52 40
3 6 10 37 100 100 95 100 100 100 100 100 99 98 82 65 42 60 52 100 100 90 100 100 100 100 96 86 55 52 55 55 47 41 23 43 56 70 59 42 56 64 44 68 79 48 40
4 5 7 16 22 22 56 96 100 100 100 98 97 92 77 72 78 63 87 100 100 100 100 100 100 100 79 57 52 56 59 62 42 33 51 58 52 58 52 41 45 59 53 84 68 50 47
5 5 4 7 25 46 30 45 71 90 79 89 87 62 79 68 63 52 100 100 100 100 100 100 100 96 58 53 63 71 85 32 37 45 46 47 53 71 36 40 36 49 69 80 78 76 96
6 7 6 6 16 76 89 86 67 73 85 71 70 93 58 56 45 71 100 100 100 100 100 94 84 67 54 69 74 59 34 40 40 45 50 80 68 43 58 67 58 56 83 96 90 83 99
8 10 10 10 9 12 51 100 81 86 92 80 94 98 44 44 50 90 100 90 98 100 95 92 77 63 89 93 31 31 36 36 48 48 71 58 53 37 41 62 70 78 98 99 95 100 100
10 14 12 14 15 17 8 22 67 100 96 71 57 32 34 37 91 100 100 100 100 97 100 80 65 100 87 36 31 53 80 70 51 60 86 80 60 44 66 76 96 95 100 98 99 100 100
10 16 12 18 19 24 26 17 17 18 18 20 26 32 50 80 100 100 100 100 91 88 87 89 100 86 62 30 69 98 100 70 63 82 100 73 59 68 73 92 100 97 97 100 100 100 97
10 18 13 13 17 22 28 27 25 26 21 22 40 61 85 94 84 87 91 79 99 100 100 100 77 94 78 55 94 97 91 99 80 79 93 94 86 82 90 100 100 100 100 100 100 100 100
10 22 20 16 14 16 23 30 33 33 28 23 26 43 36 35 48 59 64 69 92 93 91 74 88 91 90 100 100 98 100 99 94 97 87 88 90 84 96 100 100 100 98 99 99 100 95
10 23 29 28 22 26 23 22 25 29 32 38 38 36 34 40 43 54 58 71 94 93 68 80 69 84 93 92 96 100 99 100 100 94 100 99 96 95 100 97 100 100 100 99 95 89 100
9 19 32 36 36 36 35 37 40 43 45 46 48 46 51 55 56 60 64 69 74 83 68 78 78 86 96 100 85 70 75 100 98 85 100 99 98 99 95 91 95 97 99 97 100 98 100
7 14 28 39 41 44 51 47 39 35 38 30 25 31 52 65 85 90 79 72 81 63 60 62 78 94 85 70 66 63 51 97 97 95 100 99 97 91 79 85 85 87 91 90 100 99 86
11 9 23 31 39 40 51 62 75 74 79 77 89 95 88 92 98 95 100 92 84 64 54 60 58 63 53 51 47 46 42 62 82 92 97 93 95 87 79 74 76 74 74 86 90 86 78
25 8 12 29 29 32 33 38 59 68 64 39 36 30 37 69 94 83 86 82 76 56 51 52 53 49 44 43 40 51 54 59 69 87 76 70 71 74 66 63 61 66 58 56 74 59 92
21 15 8 19 28 28 26 20 23 29 33 22 9 9 12 14 16 20 27 56 52 46 42 43 37 31 37 32 27 27 38 39 39 41 45 48 56 63 61 55 53 58 59 44 43 44 54
21 20 13 9 21 23 20 16 12 8 7 5 5 4 5 7 10 12 16 39 34 42 34 33 32 29 25 21 22 22 33 34 36 35 35 32 37 50 55 42 32 38 38 46 36 32 31
25 19 20 13 11 21 22 17 11 7 4 3 4 3 4 4 5 6 10 24 28 33 30 25 27 24 21 22 22 22 22 27 29 30 31 28 25 31 44 48 50 39 30 28 32 35 31
27 24 20 16 12 12 22 20 15 10 6 3 3 4 5 6 4 4 5 8 13 22 23 22 24 22 24 24 22 23 20 20 23 22 26 30 28 24 24 29 34 31 37 33 30 24 23
30 26 23 19 16 15 12 23 17 14 14 7 3 4 6 7 8 7 5 4 6 8 12 16 25 28 26 27 26 25 20 17 17 19 20 19 19 19 20 22 23 23 20 19 15 14 10
40 25 26 23 17 16 15 12 19 14 14 16 9 3 4 5 6 8 9 8 7 6 5 7 9 11 14 14 13 13 13 12 12 13 14 15 15 14 13 12 11 13 11 9 8 8 6
61 31 26 26 26 16 14 19 16 15 19 19 19 7 3 4 4 5 6 9 10 9 9 8 8 7 8 8 9 8 8 8 7 7 7 7 7 7 7 7 8 6 7 7 9 7 8
68 51 28 29 29 27 16 12 15 14 12 22 25 18 8 3 4 6 6 7 9 10 10 10 10 10 10 9 9 8 8 9 9 9 10 9 9 9 9 10 9 10 11 12 14 16 17
Wind_Speed
68 64 63 63 63 61 57 55 55 57 58 59 59 58 56 54 51 49 49 49 48 50 50 52 48 49 48 47 45 41 40 40 39 39 39 39 42 42 42 43 43 37 38 41 46 50 53
71 69 68 67 64 61 59 56 54 53 53 55 55 55 56 53 51 52 51 50 49 45 47 43 46 48 42 43 40 38 38 38 37 37 37 38 40 41 39 42 43 41 40 41 46 51 53
76 75 72 68 62 59 57 57 57 56 56 54 52 53 48 55 56 52 51 51 51 46 41 43 41 40 39 41 37 36 35 34 35 34 37 38 39 41 40 39 41 44 44 46 52 53 53
81 82 78 68 63 62 58 55 56 52 52 49 53 52 53 62 58 54 55 50 41 44 46 35 37 43 31 36 35 31 32 32 33 33 35 36 38 40 42 43 42 41 42 45 48 48 49
87 83 76 69 61 56 55 59 62 57 52 56 55 54 59 62 50 49 42 39 34 29 36 35 29 29 39 32 29 26 27 29 29 30 32 35 38 42 42 33 30 29 31 33 31 31 33
87 85 74 60 53 55 54 60 71 67 64 68 61 53 57 49 55 63 52 45 38 34 31 31 36 35 32 27 24 21 24 25 26 31 34 37 36 27 21 14 16 16 8 7 5 9 12
84 81 67 61 52 55 63 54 63 65 65 50 50 54 54 51 63 63 25 25 32 34 32 37 32 31 25 25 19 21 20 24 28 31 31 25 12 10 9 8 4 5 8 8 4 8 4
76 75 72 63 58 58 60 59 57 57 52 57 68 63 63 43 32 13 16 21 24 23 29 29 27 27 21 19 19 18 21 23 26 23 13 7 8 7 9 6 8 5 8 3 5 3 1
79 74 69 64 58 53 44 41 42 50 59 53 25 23 19 11 10 19 30 25 29 30 31 31 27 22 20 18 18 19 19 18 15 8 7 8 9 8 5 9 8 6 7 5 2 2 6
83 82 76 67 58 52 44 33 28 30 28 16 13 7 9 2 18 26 37 26 24 26 28 28 25 22 21 19 17 15 12 8 13 9 6 7 5 3 7 11 11 10 6 3 2 4 12
90 87 78 74 65 50 43 36 30 26 24 19 12 14 11 19 28 34 27 23 19 28 29 28 28 24 21 13 9 10 12 13 8 4 4 5 3 11 11 9 11 8 3 2 3 8 11
84 84 78 78 77 65 45 33 30 28 23 19 22 19 15 33 32 37 26 32 29 21 21 24 23 18 17 14 12 17 13 8 4 6 1 6 8 17 9 9 9 6 2 7 7 8 6
76 80 74 76 77 80 70 48 33 31 28 20 15 34 43 39 43 42 41 42 24 26 24 21 21 22 21 18 18 11 8 9 11 10 10 4 12 13 8 8 8 6 6 9 7 12 7
70 75 70 69 72 72 74 72 68 64 61 56 51 49 46 42 36 30 36 22 30 24 19 21 22 26 22 20 15 11 8 12 11 5 9 10 7 7 13 9 7 4 5 9 12 11 11
64 69 67 65 64 65 63 64 66 66 61 55 52 49 49 45 35 30 31 28 24 24 18 22 31 24 21 17 14 11 11 8 9 6 9 8 5 4 8 7 2 4 9 8 11 20 28
57 62 63 61 60 60 59 60 59 57 55 53 49 42 40 36 37 33 28 28 21 13 22 30 28 24 21 20 13 15 13 10 11 10 11 10 9 10 7 7 9 9 6 9 21 24 21
50 57 58 58 55 57 54 52 51 51 49 45 38 32 36 35 30 29 23 21 21 24 28 26 24 24 23 17 15 16 12 9 9 9 8 14 13 12 9 13 12 12 12 19 30 28 27
47 50 55 55 54 53 51 47 44 46 46 41 36 34 32 28 25 22 20 19 20 19 26 22 17 20 21 17 17 15 13 14 14 9 13 12 13 12 14 14 16 16 18 18 23 30 27
50 45 49 51 53 53 49 46 42 39 39 36 31 28 27 24 21 20 15 13 14 21 25 23 19 22 17 13 12 14 13 16 16 12 12 13 15 13 15 17 18 16 19 20 19 23 29
54 43 43 47 50 53 52 50 43 39 38 34 29 25 21 19 19 15 14 10 7 21 28 21 17 18 15 15 16 17 16 15 15 11 13 14 12 12 13 15 17 16 19 20 21 25 23
52 47 37 40 45 49 53 53 50 44 38 36 31 27 24 20 16 14 10 9 13 32 27 18 20 20 17 18 21 18 19 17 15 13 12 9 8 10 11 13 15 16 15 16 18 24 19
49 49 42 34 38 43 47 52 53 51 46 43 45 42 34 28 24 19 20 21 35 36 23 21 21 22 23 20 18 17 16 16 15 13 10 7 6 9 10 11 14 16 15 14 13 14 18
42 44 47 35 29 33 39 44 49 51 49 48 49 49 47 41 31 26 26 31 37 28 22 23 24 22 22 21 19 18 16 16 16 15 13 8 5 7 8 11 13 12 13 14 13 11 11
36 38 41 44 32 28 30 34 39 43 43 43 44 46 47 45 40 32 27 33 31 26 21 24 24 22 18 16 14 13 13 12 12 12 12 12 9 6 5 7 6 12 14 14 11 7 4
32 35 34 40 43 29 25 26 29 32 36 34 36 39 41 43 42 39 33 26 23 26 23 21 19 17 15 11 5 3 8 5 3 4 5 6 7 8 10 8 9 7 11 9 8 6 5
29 32 30 29 36 38 26 24 23 25 28 31 27 29 32 35 37 37 34 32 28 22 16 13 13 12 10 9 7 6 6 4 3 6 7 6 5 5 5 5 8 7 5 3 2 1 1
28 28 30 27 28 32 36 23 20 22 20 21 24 19 21 24 26 28 30 29 28 26 22 16 10 6 7 5 3 3 2 3 6 11 13 12 12 11 11 10 7 7 7 8 7 4 5
28 26 28 28 24 24 24 31 27 19 16 17 16 18 14 14 17 18 20 21 22 22 21 19 18 14 12 9 6 6 7 8 10 10 12 13 13 14 13 11 8 12 13 8 6 4 2
32 25 25 28 30 25 23 22 23 26 19 14 15 12 12 9 8 11 12 12 13 14 14 14 13 13 12 12 11 11 10 9 10 9 9 8 9 8 9 9 8 7 5 3 2 2 4
Wind_Direction
330 325 320 317 314 311 305 299 294 289 286 283 282 282 282 281 280 277 271 266 264 263 260 260 261 258 261 263 263 266 267 270 272 274 276 277 276 276 271 265 265 272 270 270 264 263 262
330 326 321 319 317 311 306 300 295 289 286 287 287 287 287 288 296 294 287 279 268 265 260 257 246 262 259 261 262 264 266 269 272 273 274 274 274 274 277 270 265 267 272 271 267 260 257
331 329 328 324 318 311 306 301 299 294 291 290 295 292 286 296 292 292 293 281 273 267 262 257 257 244 245 261 256 257 264 266 267 271 273 275 278 277 277 273 270 269 270 274 268 266 257
334 333 329 324 316 311 308 303 298 300 300 295 300 298 295 295 289 287 292 287 275 264 258 253 242 242 243 249 253 253 261 262 266 270 275 279 278 274 274 274 272 271 273 271 269 260 257
338 334 331 325 319 313 308 308 305 300 298 297 294 293 296 294 287 280 283 273 245 249 241 246 240 228 236 244 242 250 258 261 266 274 275 276 275 276 279 274 268 267 269 268 270 266 263
341 337 333 325 321 314 305 313 302 298 300 298 297 290 295 284 290 299 287 272 258 257 231 224 209 228 232 233 237 245 254 261 268 269 274 278 279 273 265 259 278 274 258 226 224 255 261
346 342 334 320 315 309 306 313 294 293 296 295 294 297 290 281 291 298 248 233 246 240 215 209 213 222 215 220 230 237 247 258 264 272 281 277 255 258 250 263 224 191 195 168 213 224 233
351 347 336 331 316 304 299 296 302 298 289 293 297 297 303 310 298 212 176 173 189 196 194 193 205 199 202 207 218 232 248 257 271 282 263 194 228 237 243 235 194 239 200 232 299 188 252
8 4 1 345 336 329 322 309 303 291 296 314 339 321 304 309 151 163 156 173 188 190 186 182 210 185 185 198 214 234 250 267 276 187 176 224 244 256 215 201 227 218 192 300 307 272 265
14 13 12 8 2 7 15 3 337 318 332 346 354 21 353 97 151 160 129 146 161 167 177 178 168 180 182 195 214 239 236 241 174 181 229 256 230 209 195 203 224 182 214 250 169 238 321
15 17 19 22 16 9 12 21 25 18 15 28 22 6 16 141 146 155 135 146 129 132 142 155 164 170 180 184 207 231 198 168 170 212 240 270 138 176 158 177 179 194 205 356 236 236 285
19 23 26 30 32 25 15 8 10 7 6 8 2 357 93 135 133 127 121 123 121 128 151 161 163 161 163 165 145 141 151 159 171 161 118 134 132 162 167 169 174 194 125 15 36 351 322
24 27 32 35 41 42 41 35 24 19 29 31 48 96 115 125 125 109 122 121 90 128 143 151 153 159 146 139 137 126 128 138 137 146 160 142 164 167 171 172 166 120 349 4 344 29 10
27 30 36 41 45 49 50 56 60 69 76 83 90 99 108 113 123 118 110 87 105 117 135 147 143 133 138 139 128 106 105 129 132 95 68 139 149 169 163 171 123 328 23 15 53 61 111
29 33 37 41 45 50 53 59 64 69 79 89 91 93 97 93 92 97 100 95 101 106 118 141 133 129 130 132 117 107 110 119 125 115 75 93 136 160 170 162 64 105 87 76 87 80 101
25 36 38 42 44 47 53 56 60 67 75 85 93 95 91 86 93 97 96 99 101 107 129 129 128 126 126 123 113 113 113 116 95 96 93 77 117 152 143 120 107 99 93 93 101 110 117
27 31 38 42 46 44 46 52 55 60 64 74 81 78 76 77 85 90 86 79 84 111 131 125 117 125 131 132 117 113 110 94 93 101 101 91 121 127 117 115 106 92 93 92 111 116 120
20 28 36 40 44 45 43 45 50 53 58 60 61 53 59 62 64 68 65 72 80 110 134 122 121 141 122 120 112 104 90 92 84 111 89 97 108 118 119 103 95 95 104 98 109 108 118
14 19 31 37 41 42 44 39 37 42 45 51 45 41 45 47 41 34 41 56 87 120 142 126 127 136 124 113 108 102 94 90 98 98 91 103 108 107 109 108 101 99 99 104 105 119 108
15 13 20 34 35 37 39 40 38 35 35 34 36 31 31 24 23 33 39 35 65 131 147 127 125 136 127 121 109 95 92 89 96 99 106 96 102 111 110 109 109 107 106 103 108 104 117
11 13 13 22 31 31 33 35 36 34 38 42 41 35 32 32 32 39 44 54 117 138 136 121 123 120 115 109 98 93 92 91 93 100 94 90 100 117 121 118 117 118 112 109 112 116 116
8 12 9 15 24 27 30 28 30 33 31 36 41 43 44 46 47 56 72 98 123 132 120 114 120 117 109 95 87 95 99 97 94 94 91 89 108 125 124 131 124 122 123 122 123 118 125
10 9 11 8 16 23 26 24 25 26 29 31 38 43 44 46 56 75 91 114 126 128 120 126 124 116 110 99 89 79 92 98 99 100 98 96 100 137 147 147 139 139 137 136 136 140 131
4 9 5 8 5 12 21 24 24 24 26 30 37 42 45 49 53 66 91 125 131 134 128 135 135 129 118 108 93 74 73 82 94 101 107 113 124 148 171 164 169 156 161 160 158 163 181
358 4 10 5 7 2 6 18 22 23 24 28 34 39 43 46 53 57 66 88 119 142 142 149 147 147 150 146 119 52 7 69 87 87 108 129 134 140 156 174 186 184 197 202 187 194 213
349 355 7 12 358 6 358 359 11 17 19 20 28 38 40 45 46 50 60 64 77 92 125 152 172 185 198 205 226 282 299 281 255 221 216 200 194 192 197 190 195 216 221 249 292 227 237
336 346 351 8 15 2 4 1 357 359 6 16 13 25 39 41 43 44 47 57 62 67 75 89 113 156 181 191 236 237 184 177 193 214 217 213 209 210 211 218 213 212 203 182 152 132 130
324 332 340 348 358 14 4 356 0 345 351 357 7 8 18 37 36 41 43 47 52 57 62 66 68 77 93 92 105 119 128 125 139 147 160 164 167 170 171 163 153 167 159 142 160 189 142
309 318 329 335 342 353 10 1 354 359 344 335 339 347 354 351 19 33 39 42 47 55 54 59 63 67 72 82 84 87 87 87 90 104 116 133 134 149 131 135 131 129 128 116 85 27 13